Regional Weather Roundup
Issued by NWS Upton, NY

Current Version | Previous Version | Graphics & Text | Print | Product List | Glossary Off
Versions: 1 2 3 4 5 6 7 8 9 10 11 12 13 14 15 16 17 18 19 20 21 22 23 24 25 26 27 28 29 30 31 32 33 34 35 36 37 38 39 40 41 42 43 44 45 46 47 48 49 50
000 ASUS41 KOKX 272104 RWROKX REGIONAL WEATHER ROUNDUP NATIONAL WEATHER SERVICE NEW YORK NY 500 PM EDT WED APR 27 2016 NOTE: "FAIR" INDICATES FEW OR NO CLOUDS BELOW 12,000 FEET WITH NO SIGNIFICANT WEATHER AND/OR OBSTRUCTIONS TO VISIBILITY. NYZ071-072-176-178-NJZ106-104-272200- NEW YORK CITY METRO AREA CITY SKY/WX TMP DP RH WIND PRES REMARKS CENTRAL PARK SUNNY 59 41 51 VRB7 29.90R LAGUARDIA APRT MOSUNNY 58 41 53 S13 29.87S KENNEDY INTL PTSUNNY 53 41 63 S13 29.92R NEWARK/LIBERTY PTSUNNY 60 43 53 S10G18 29.87S BRNX BOT. GARD N/A 59 41 51 W5 29.88F TETERBORO SUNNY 60 41 49 S12 29.86S $$ NYZ177-179-078>081-272200- LONG ISLAND NEW YORK CITY SKY/WX TMP DP RH WIND PRES REMARKS FARMINGDALE SUNNY 53 42 66 S12 29.90S ISLIP MOSUNNY 52 39 61 S13 29.90R SHIRLEY SUNNY 51 37 58 S12 29.91R RIVERHEAD N/A 55 41 58 SW5 29.89R WESTHAMPTON SUNNY 49 38 65 SW9 29.92R EAST HAMPTON FAIR 49 37 62 S8 29.89S MONTAUK POINT N/A 51 39 63 VRB5 29.90F $$ NYZ052-065-067-272200- HUDSON VALLEY CITY SKY/WX TMP DP RH WIND PRES REMARKS WHITE PLAINS MOSUNNY 59 41 51 S7 29.86R NEWBURGH MOSUNNY 63 36 36 SW7 29.84F MONTGOMERY SUNNY 64 38 38 SW13G18 29.82S POUGHKEEPSIE SUNNY 64 31 28 CALM 29.84R ALBANY MOSUNNY 58 24 27 W18 29.86S $$ NJZ001-105-106-008-010-013-015-019>022-104-272200- NEW JERSEY CITY SKY/WX TMP DP RH WIND PRES REMARKS NEWARK/LIBERTY PTSUNNY 60 43 53 S10G18 29.87S TETERBORO SUNNY 60 41 49 S12 29.86S CALDWELL SUNNY 61 41 47 S8 29.86F MORRISTOWN MOSUNNY 61 45 55 SW8 29.87S SOMERVILLE MOSUNNY 61 45 55 VRB3 29.86F SUSSEX SUNNY 62 43 49 S7 29.85S ANDOVER N/A 60 44 55 SW10G17 29.86S TRENTON CLOUDY 55 43 63 SW7 29.90S MILLVILLE CLOUDY 54 43 66 CALM 29.92S ATLANTIC CITY CLOUDY 51 42 71 E5 29.93R WRIGHTSTOWN CLOUDY 53 44 70 S3 29.89S TOMS RIVER CLOUDY 52 39 62 CALM 29.93S BELMAR CLOUDY 51 42 71 S8 29.92S $$ PAZ047>061-062-071-272200- EASTERN PENNSYLVANIA CITY SKY/WX TMP DP RH WIND PRES REMARKS PHILADELPHIA CLOUDY 54 42 64 S3 29.93S ALLENTOWN PTSUNNY 57 45 64 SW10 29.89F SCRANTON SUNNY 62 28 27 NW8 29.86S $$ CTZ002-004>006-009-010-012-RIZ004-006-007-MAZ004-011-015-272200- SOUTHERN NEW ENGLAND IN CT CITY SKY/WX TMP DP RH WIND PRES REMARKS BRADLEY INTL MOSUNNY 63 25 23 W8G21 29.81S HARTFORD SUNNY 62 30 29 SW9 29.83R DANBURY SUNNY 61 28 28 VRB6 29.86R WTRBRY/OXFORD SUNNY 59 30 33 S7G16 29.85F BRIDGEPORT SUNNY 57 41 55 S13 29.88R MERIDEN SUNNY 60 27 28 S10G16 29.85S NEW HAVEN SUNNY 55 31 39 S7 29.87S CHESTER FAIR 57 27 30 SW8G15 29.86S GROTON SUNNY 50 45 83 S14 29.87S WILLIMANTIC SUNNY 64 23 21 W10G21 29.82F IN RI CITY SKY/WX TMP DP RH WIND PRES REMARKS PROVIDENCE MOSUNNY 55 32 41 S17 29.85S BLOCK ISLAND SUNNY 48 38 68 SW13 29.89S WESTERLY SUNNY 51 35 54 S12 29.88F IN MA CITY SKY/WX TMP DP RH WIND PRES REMARKS BOSTON MOSUNNY 54 39 57 E10 29.79F WORCESTER SUNNY 57 21 24 W15G23 29.80F WESTFIELD SUNNY 62 26 25 W9 29.81F PROVINCETOWN SUNNY 52 40 63 S17 29.84F NANTUCKET SUNNY 49 37 63 SW13 29.88F $$ ANZ330-335-338-340-345-350-353-355-272200- COASTAL MARINE OBSERVATIONS STATION/POSITION TIME SKY/WX TEMP WIND PRES VSBY WAVE AIR SEA DIR/SP/G HT/PER (UTC) (F) (DEG/KT/KT) (MB) (MI) (FT/S) NY HARB ENTRANCE 1950 48 53 170/ 8/ 10 1012.4 3/ 8 20S FIRE ISLAND 1950 46 50 150/ 6/ 6 1012.6 4/ 8 GREAT SOUTH BAY 2030 48 60 210/ 10/ 12 N/A 23 SSW MONTAUK P 2050 45 48 200/ 8/ 10 1011.9 4/ 8 15 E BARNEGAT LI 2022 51 N/A 4/ 8 HUDSON CANYON 1950 47 49 1012.6 4/ 8 KINGS POINT 2000 54 53 1011.4 EXECUTION ROCKS NOT AVBL CENTRAL LI SOUND 2000 52 180/ 6/ 8 N/A 0 EASTERN LI SOUND 2000 49 47 170/ 14/ 17 N/A ROBBINS REEF 2000 50 170/ 17/ 18 1011.3 $$ >>>>>>>>>>>>>>>>>>>>>>>>>>>> KEY <<<<<<<<<<<<<<<<<<<<<<<<<<< > < > SKY/WX - SKY CONDITION/PRESENT WEATHER < > TMP - TEMPERATURE IN FAHRENHEIT < > DP - DEWPOINT IN FAHRENHEIT < > RH - RELATIVE HUMIDITY IN PERCENT < > WIND - DIRECTION AND SPEED IN MPH < > PRES - MEAN SEA LEVEL PRESSURE IN INCHES OF HG < > WCI - WIND CHILL INDEX < > VSB - VISIBILITY IN MILES < > HX - HEAT INDEX < > TC - TEMPERATURE IN CELSIUS < > VRB - VARIABLE WIND DIRECTION < > < >>>>>>>>>>>>>>>>>>>>>>>>>>>> KEY <<<<<<<<<<<<<<<<<<<<<<<<<<<

USA.gov is the U.S. government's official web portal to all federal, state and local government web resources and services.